• In Belarus
  • List of Countries
  • For 7 days
  • Water Temperature
  • Weather Map
  • Weather Widgets
  • user-avatar
    Login

    Hourly Weather Klagenfurt

    Today, 22 February, Saturday

    Time Temperature Precipitation Wind Pressure Humidity
    00:00 0°C° 0 mm 0 mps 697 mmHg 62%
    01:00 0°C° 0 mm 0 mps 698 mmHg 64%
    02:00 0°C° 0 mm 0 mps 697 mmHg 65%
    03:00 -1°C° 0 mm 0 mps 697 mmHg 65%
    04:00 -1°C° 0 mm 0 mps 697 mmHg 66%
    05:00 -1°C° 0 mm 0 mps 697 mmHg 67%
    06:00 -1°C° 0 mm 0 mps 697 mmHg 67%
    07:00 -1°C° 0 mm 0 mps 698 mmHg 68%
    08:00 +1°C° 0 mm 0 mps 698 mmHg 63%
    09:00 +4°C° 0 mm 1 mps 698 mmHg 58%
    10:00 +6°C° 0 mm 1 mps 698 mmHg 53%
    11:00 +7°C° 0 mm 1 mps 698 mmHg 53%
    12:00 +8°C° 0 mm 1 mps 698 mmHg 53%
    13:00 +8°C° 0 mm 1 mps 698 mmHg 54%
    14:00 +8°C° 0 mm 1 mps 698 mmHg 57%
    15:00 +8°C° 0 mm 1 mps 697 mmHg 61%
    16:00 +7°C° 0 mm 2 mps 696 mmHg 64%
    17:00 +5°C° 0 mm 2 mps 696 mmHg 71%
    18:00 +5°C° 0 mm 1 mps 696 mmHg 77%
    19:00 +3°C° 0 mm 1 mps 696 mmHg 84%
    20:00 +3°C° 0 mm 1 mps 696 mmHg 83%
    21:00 +3°C° 0 mm 1 mps 696 mmHg 83%
    22:00 +3°C° 0 mm 1 mps 695 mmHg 83%
    23:00 +3°C° 0 mm 1 mps 696 mmHg 84%

    Tomorrow, 23 February, Sunday

    Time Temperature Precipitation Wind Pressure Humidity
    00:00 +3°C° 0 mm 1 mps 696 mmHg 84%
    01:00 +2°C° 0 mm 1 mps 696 mmHg 85%
    02:00 +2°C° 0 mm 1 mps 695 mmHg 85%
    03:00 +2°C° 0 mm 1 mps 695 mmHg 85%
    04:00 +2°C° 0 mm 1 mps 694 mmHg 86%
    05:00 +2°C° 0 mm 1 mps 694 mmHg 85%
    06:00 +2°C° 0 mm 1 mps 695 mmHg 85%
    07:00 +2°C° 0 mm 1 mps 695 mmHg 84%
    08:00 +4°C° 0 mm 1 mps 695 mmHg 77%
    09:00 +6°C° 0 mm 1 mps 695 mmHg 70%
    10:00 +7°C° 0 mm 1 mps 695 mmHg 63%
    11:00 +8°C° 0 mm 1 mps 695 mmHg 62%
    12:00 +9°C° 0 mm 1 mps 694 mmHg 60%
    13:00 +10°C° 0 mm 1 mps 694 mmHg 58%
    14:00 +10°C° 0 mm 1 mps 693 mmHg 61%
    15:00 +9°C° 0 mm 1 mps 693 mmHg 64%
    16:00 +8°C° 0 mm 2 mps 692 mmHg 67%
    17:00 +7°C° 0 mm 2 mps 691 mmHg 73%
    18:00 +5°C° 0 mm 2 mps 691 mmHg 80%
    19:00 +4°C° 0 mm 2 mps 690 mmHg 87%
    20:00 +3°C° 0 mm 2 mps 690 mmHg 88%
    21:00 +3°C° 0 mm 2 mps 690 mmHg 89%
    22:00 +3°C° 0 mm 2 mps 689 mmHg 90%
    23:00 +3°C° 0 mm 2 mps 689 mmHg 90%

    Day after tomorrow, 24 February, Monday

    Time Temperature Precipitation Wind Pressure Humidity
    00:00 +3°C° 0 mm 2 mps 689 mmHg 91%
    01:00 +3°C° 0 mm 2 mps 689 mmHg 91%
    02:00 +3°C° 0 mm 2 mps 689 mmHg 91%
    03:00 +4°C° 0 mm 1 mps 689 mmHg 90%
    04:00 +4°C° 0 mm 1 mps 689 mmHg 90%
    05:00 +5°C° 0 mm 1 mps 690 mmHg 89%
    06:00 +5°C° 0 mm 1 mps 690 mmHg 89%
    07:00 +4°C° 0 mm 0 mps 691 mmHg 89%
    08:00 +5°C° 0.1 mm 0 mps 692 mmHg 86%
    09:00 +7°C° 0.1 mm 1 mps 693 mmHg 83%
    10:00 +8°C° 0.1 mm 1 mps 694 mmHg 81%
    11:00 +8°C° 0 mm 1 mps 694 mmHg 81%
    12:00 +8°C° 0 mm 1 mps 694 mmHg 81%
    13:00 +8°C° 0 mm 1 mps 694 mmHg 81%
    14:00 +8°C° 0 mm 1 mps 694 mmHg 83%
    15:00 +8°C° 0 mm 1 mps 693 mmHg 84%
    16:00 +8°C° 0 mm 1 mps 693 mmHg 86%
    17:00 +7°C° 0 mm 1 mps 693 mmHg 89%
    18:00 +6°C° 0 mm 1 mps 692 mmHg 91%
    19:00 +5°C° 0 mm 1 mps 692 mmHg 93%
    20:00 +5°C° 0 mm 1 mps 692 mmHg 94%
    21:00 +5°C° 0 mm 1 mps 692 mmHg 94%
    22:00 +4°C° 0 mm 1 mps 691 mmHg 94%
    23:00 +3°C° 0 mm 0 mps 691 mmHg 94%

    25 February, Tuesday

    Time Temperature Precipitation Wind Pressure Humidity
    00:00 +3°C° 0 mm 0 mps 690 mmHg 94%
    01:00 +3°C° 0 mm 0 mps 690 mmHg 94%
    02:00 +3°C° 0 mm 0 mps 689 mmHg 94%
    03:00 +3°C° 0 mm 0 mps 689 mmHg 94%
    04:00 +4°C° 0 mm 1 mps 688 mmHg 94%
    05:00 +4°C° 0 mm 1 mps 688 mmHg 94%
    06:00 +4°C° 0 mm 1 mps 688 mmHg 94%
    07:00 +5°C° 0 mm 1 mps 687 mmHg 94%
    08:00 +5°C° 0 mm 1 mps 687 mmHg 92%
    09:00 +6°C° 0 mm 1 mps 687 mmHg 90%
    10:00 +7°C° 0 mm 1 mps 687 mmHg 89%
    11:00 +7°C° 0 mm 1 mps 686 mmHg 86%
    12:00 +8°C° 0 mm 1 mps 685 mmHg 83%
    13:00 +8°C° 0 mm 1 mps 685 mmHg 81%
    14:00 +8°C° 0 mm 1 mps 684 mmHg 81%
    15:00 +8°C° 0 mm 1 mps 683 mmHg 82%
    16:00 +8°C° 0 mm 1 mps 683 mmHg 83%
    17:00 +7°C° 0 mm 1 mps 682 mmHg 86%
    18:00 +7°C° 0 mm 1 mps 682 mmHg 90%
    19:00 +6°C° 0 mm 1 mps 682 mmHg 93%
    20:00 +6°C° 0 mm 1 mps 682 mmHg 93%
    21:00 +6°C° 0 mm 1 mps 681 mmHg 94%
    22:00 +5°C° 0 mm 1 mps 681 mmHg 94%
    23:00 +5°C° 0 mm 1 mps 681 mmHg 94%

    26 February, Wednesday

    Time Temperature Precipitation Wind Pressure Humidity
    00:00 +5°C° 0 mm 1 mps 680 mmHg 94%
    01:00 +5°C° 0 mm 1 mps 680 mmHg 94%
    02:00 +5°C° 0 mm 1 mps 679 mmHg 94%
    03:00 +5°C° 0 mm 1 mps 679 mmHg 94%
    04:00 +4°C° 0 mm 0 mps 679 mmHg 94%
    05:00 +4°C° 0 mm 0 mps 678 mmHg 94%
    06:00 +4°C° 0 mm 0 mps 678 mmHg 94%
    07:00 +4°C° 0 mm 0 mps 678 mmHg 95%
    08:00 +4°C° 0.1 mm 0 mps 678 mmHg 93%
    09:00 +4°C° 0.1 mm 0 mps 678 mmHg 92%
    10:00 +4°C° 0.1 mm 0 mps 677 mmHg 90%
    11:00 +5°C° 0.8 mm 1 mps 677 mmHg 91%
    12:00 +5°C° 0.8 mm 1 mps 676 mmHg 93%
    13:00 +4°C° 0.8 mm 2 mps 676 mmHg 94%
    14:00 +3°C° 3.1 mm 2 mps 676 mmHg 92%
    15:00 +2°C° 3.1 mm 2 mps 676 mmHg 89%
    16:00 +1°C° 3.1 mm 2 mps 676 mmHg 87%
    17:00 -1°C° 0.7 mm 2 mps 677 mmHg 85%
    18:00 0°C° 0.7 mm 1 mps 678 mmHg 83%
    19:00 0°C° 0.7 mm 1 mps 678 mmHg 80%
    20:00 0°C° 0 mm 1 mps 679 mmHg 80%
    21:00 -2°C° 0 mm 0 mps 680 mmHg 80%
    22:00 -2°C° 0 mm 0 mps 681 mmHg 80%
    23:00 -2°C° 0 mm 1 mps 681 mmHg 79%

    27 February, Thursday

    Time Temperature Precipitation Wind Pressure Humidity
    00:00 -2°C° 0 mm 1 mps 682 mmHg 78%
    01:00 -2°C° 0 mm 1 mps 682 mmHg 78%
    02:00 -3°C° 0 mm 1 mps 682 mmHg 76%
    03:00 -3°C° 0 mm 1 mps 682 mmHg 74%
    04:00 -3°C° 0 mm 1 mps 682 mmHg 72%
    05:00 -3°C° 0 mm 1 mps 683 mmHg 71%
    06:00 -3°C° 0 mm 1 mps 683 mmHg 71%
    07:00 -3°C° 0 mm 1 mps 683 mmHg 70%
    08:00 -3°C° 0 mm 2 mps 684 mmHg 63%
    09:00 -1°C° 0 mm 2 mps 685 mmHg 55%
    10:00 +2°C° 0 mm 2 mps 686 mmHg 48%
    11:00 +2°C° 0 mm 2 mps 686 mmHg 46%
    12:00 +3°C° 0 mm 2 mps 686 mmHg 43%
    13:00 +4°C° 0 mm 2 mps 686 mmHg 40%
    14:00 +4°C° 0 mm 2 mps 686 mmHg 42%
    15:00 +3°C° 0 mm 2 mps 686 mmHg 44%
    16:00 +4°C° 0 mm 1 mps 686 mmHg 46%
    17:00 +3°C° 0 mm 1 mps 685 mmHg 53%
    18:00 +1°C° 0 mm 1 mps 685 mmHg 60%
    19:00 -1°C° 0 mm 1 mps 685 mmHg 67%
    20:00 -1°C° 0 mm 1 mps 685 mmHg 68%
    21:00 -1°C° 0 mm 1 mps 685 mmHg 70%
    22:00 -1°C° 0 mm 1 mps 685 mmHg 71%
    23:00 -2°C° 0 mm 1 mps 685 mmHg 71%
    Show more